Погода Старая Русса

Погода Старая Русса : погода сейчас, прогноз погоды и архив. Всё, что Вы хотите узнать о погоде Старая Русса!

Хотите узнать прогноз погоды Старая Русса? Тогда Вам сюда: Погода Старая Русса

Поиск расширенной информации на нашем сайте:

Полезная информация:

Другие новости

Новости СМИ2

Главная страница сайта

Новости сайта

03.07.2017

Напоминаем, что на нашем специализированном сайте Метеоцентр.Азия вы можете получить высокодетализированные автоматические прогнозы погоды по пунктам России, СНГ и мира в авиационном формате (включающие направление и скорость ветра, видимость, явления погоды, количество и форму облачности, нижнюю и верхнюю границу облачности).

Рекомендуем:

Погода Старая Русса - сегодня

Время (UTC), дата Ветер
(°,м/с) 
Видим.   Явления Облачность Т
(°С)
Тd
(°С)
f(%) Тe
(°С)
Pmin
(гПа)
dP
(гПа)
Po
(мм)
O2
(г/м3)
Тmin Tmax R s Состояние
почвы
12 15.07.19 290 (З) 20000 м    9/8 300 м кучево-дожд., верхняя 
[Cb cap|Ci sp]
+17.8 +9.6 59 +19  1010.9  -0.3  756  284           
15 15.07.19 040 (СВ) 20000 м  {ливн. осадки}  6/4 300 м кучево-дожд., средняя, верхняя 
[Cb cap|Ac trans|Ci fib]
+19.5 +10.5 56 +23  1010.8  -0.1  756  282      0.3     
18 15.07.19 090 (В) 20000 м  {ливн. осадки}  8/1 600 м средняя, верхняя 
[Cu med, cong|Ac trans|Ci fib]
+13.7 +11.7 88 +18  1011  0.2  756  288    +20.8  0.3     
21 15.07.19 тихо ()   20000 м    5/0 средняя 
[Ac trans]
+10.5 +9.8 95 +11  1011.1  756  292           
00 16.07.19 тихо ()   20000 м  дымка  1/0 средняя 
[Ac trans]
+7.5 +7 97 +8  1011.1  756  295           
03 16.07.19 тихо ()   4000 м  дымка  3/0 средняя 
[Ac trans]
+9.4 +8.9 97 +9  1011.1  756  293  +6.1         
06 16.07.19 140 (ЮВ) 20000 м    6/0 верхняя 
[Ci fib]
+18.3 +11.2 63 +23  1010.6  -0.4  756  283  +6.1         
09 16.07.19 150 (ЮВ) 20000 м    8/5 600 м верхняя 
[Cu hum|Ci fib]
+20.8 +8.7 46 +21  1009.9  -0.7  755  281           
12 16.07.19 130 (ЮВ) 20000 м    8/5 600 м верхняя 
[Cu hum|Ci fib]
+22.8 +9.2 42 +23  1008.6  -1.2  754  279           
15 16.07.19 110 (В) 20000 м    8/3 300 м кучево-дожд., средняя, верхняя 
[Cb cap|Ac trans|Ci fib]
+21.8 +7.8 41 +22  1008  -0.7  754  280           
18 16.07.19 130 (ЮВ) 20000 м    8/3 300 м кучево-дожд., средняя, верхняя 
[Cb cap|Ac trans|Ci fib]
+18 +10.1 60 +20  1008.5  0.5  754  283    +23.2       
21 16.07.19 060 (СВ) 20000 м    3/0 верхняя 
[Ci fib]
+10.8 +9.4 91 +12  1008.6  754  291           
00 17.07.19 070 (В) 20000 м    9/0 средняя 
[Ac trans]
+13.4 +11.3 87 +18  1007.7  -0.8  754  287           
03 17.07.19 020 (С) 20000 м    9/0 средняя 
[Ac trans]
+13.5 +12.3 92 +19  1006.9  -0.8  753  287  +10.2         
06 17.07.19 120 (ЮВ) 20000 м    10/10 500 м 
[Sc]
+15.8 +12.9 83 +22  1006.4  -0.5  753  284  +10.2         
09 17.07.19 120 (ЮВ) 20000 м    10/8 600 м кучево-дожд., средняя 
[Cb cap|Ac und]
+17.7 +13 74 +24  1006.7  0.3  753  282           
12 17.07.19 060 (СВ) 20000 м    9/8 600 м верхняя 
[Cu med, cong|Ci sp]
+20.1 +12.9 63 +25  1006.7  753  280           
15 17.07.19 360 (С) 20000 м    9/3 600 м верхняя 
[Cu med, cong|Cs]
+19.8 +14.7 72 +29  1006.4  -0.3  753  280           
18 17.07.19 320 (СЗ) 20000 м    9/1 600 м средняя, верхняя 
[Cu med, cong|Ac trans|Ci sp]
+16.7 +14 84 +25  1006.6  0.2  753  283    +21.8       
21 17.07.19 270 (З) 20000 м    8/0 верхняя 
[Ci sp]
+11.6 +10.7 94 +15  1006.1  -0.5  752  289           
00 18.07.19 тихо ()   4000 м  дымка  10/0 средняя 
[Ac und]
+13.3 +12.7 96 +18  1005.7  -0.4  752  286           
03 18.07.19 010 (С) 20000 м  {ливн. осадки}  10/3 600 м кучево-дожд., средняя 
[Cb cap|Ac und]
+14.5 +13.9 96 +23  1004.9  -0.8  752  285  +11.5    0.4     
06 18.07.19 010 (С) 20000 м  {ливн. осадки}  10/1 600 м кучево-дожд., средняя 
[Cb cap|Ac und]
+16.9 +14.5 86 +26  1003.8  -1.1  751  282  +11.5    0.4     
09 18.07.19 020 (С) 10 км  слаб. ливневой дождь  10/8 300 м кучево-дожд., средняя 
[Cb cap|Ac und]
+15.8 +14.5 92 +25  1003  -0.8  750  283           
12 18.07.19 360 (С) 10 км  слаб. ливневой дождь  10/8 400 м кучево-дожд., средняя 
[Cb cap|As trans]
+16.8 +15.4 91 +27  1002.6  -0.4  750  281           
Время (UTC), дата Ветер
(°,м/с) 
Видим.   Явления Облачность Т
(°С)
Тd
(°С)
f(%) Тe
(°С)
Pmin
(гПа)
dP
(гПа)
Po
(мм)
O2
(г/м3)
Тmin Tmax R s Состояние
почвы

Для получения пояснительной информации подведите курсор к названию столбца.

ПОГОДА Старая Русса - архив

Всё, что Вы хотите узнать о погоде Старая Русса - удобно и подробно!

Выберите нужную дату (начиная с 1 января 2018* года) и нажмите кнопку "Найти".
Будут отображены архивные сводки погоды по пункту Старая Русса, начиная с указанной даты.


Отображать данные в формате CSV (для использования в таблицах Excel)


Внимание! Наш архив погоды предназначен исключительно для личного некоммерческого использования в познавательных целях. Если Вам необходимы официальные справки о состоянии погоды (для производственных, юридических, коммерческих и т.п. целей), обращайтесь в органы Росгидромета.

*Примечание: данная дата относится к архиву по метеостанциям СССР (Россия, СНГ, Балтия).
Архив по метеостанциям Зарубежной Европы и Азии (кроме Китая) хранится 10 дней, по другим регионам земного шара (Китай, Африка, Америка, Австралия, Океания) - 1 день.

Старая Русса - район местоположения метеостанции


Название, широта, долгота, высота метеостанции:
Старая Русса 58°ш. 31.3°д. 25 м над ур. моря [Российская Федерация]

Дополнительная информация

В oтличие oт бoльшинства пoгoдных сайтoв мы публикуем пoдрoбную метеoинфoрмацию в детальнoм прoфессиoнальнoм фoрмате.

Характеристики температуры и влажнoсти вoздуха измеряются на высoте 2 м в тени вдали oт зданий и деревьев.
Скoрoсть ветра измеряется на высoте 10 м (на урoвне рoста челoвека скoрoсть ветра ниже в 1.5-2 раза). Если метеoстанция нахoдится в гoрoде или в лесу, тo скoрoсть ветра занижена на 2-4 м/с пo сравнению с oткрытым местoм. Скoрoсть ветра над акватoриями крупных рек и oзёр, а также на вершинах хoлмoв на 2-5 м/с выше, чем в oбычных услoвиях.
Атмoсфернoе давление в разных тoчках местнoсти мoжет значительнo oтличаться oт давления на метеoстанции, в зависимoсти oт услoвий рельефа (при пoдъёме на 10 м давление пoнижается примернo на 1 мм рт.ст.).